Regional Weather Roundup
Issued by NWS

Home | Current Version | Previous Version | Graphics & Text | Print | Product List | Glossary On
Versions: 1 2 3 4 5 6 7 8 9 10 11 12 13 14 15 16 17 18 19 20 21 22 23 24 25 26 27 28 29 30 31 32 33 34 35 36 37 38 39 40 41 42 43 44 45 46 47 48 49 50
000
ASUS43 KFSD 272210
RWRSD

WEATHER ROUNDUP FOR SOUTH DAKOTA
NATIONAL WEATHER SERVICE SIOUX FALLS SD
500 PM CDT TUE JUN 27 2017

NOTE: "FAIR" INDICATES FEW OR NO CLOUDS BELOW 12,000 FEET WITH NO
SIGNIFICANT WEATHER AND/OR OBSTRUCTIONS TO VISIBILITY.


SDZ001>005-009-010-012>017-272300-
NORTHWEST AND NORTH CENTRAL SOUTH DAKOTA

CITY           SKY/WX    TMP DP  RH WIND       PRES   REMARKS
BUFFALO          N/A     89  44  20 NW31G44   29.55S
FAITH            N/A     91  57  31 S10       29.57F
MOBRIDGE       SUNNY     89  56  32 S23G33    29.53F
$$

SDZ012>016-024>037-041>051-057-063-072>074-272300-
SOUTHWEST AND SOUTH CENTRAL SOUTH DAKOTA

CITY           SKY/WX    TMP DP  RH WIND       PRES   REMARKS
RAPID CTY ARPT SUNNY     91  44  19 N12G22    29.61F
PIERRE         CLOUDY    91  60  35 S26G33    29.55F
CUSTER         SUNNY     83  43  24 E13       29.79F
ELLSWORTH AFB  MOSUNNY   92  46  19 N14G22    29.61F
PHILIP         PTSUNNY   93  55  27 W9        29.56F
PINE RIDGE     SUNNY     92  58  31 S15G21    29.63F
SPEARFISH      LGT RAIN  86  46  25 NW16G24   29.69F
WINNER         FAIR      89  61  38 S28G39    29.64F
$$

SDZ004>011-016>023-039-040-272300-
NORTHEAST SOUTH DAKOTA

CITY           SKY/WX    TMP DP  RH WIND       PRES   REMARKS
ABERDEEN       MOSUNNY   83  48  29 S23G32    29.66F
WATERTOWN      SUNNY     75  49  39 S25G36    29.74F
BROOKINGS      SUNNY     78  49  35 S23G32    29.77F
SISSETON         N/A     79  49  34 S23G33    29.71F
$$

SDZ017-020-022-023-036>040-048>070-272300-
SOUTHEAST SOUTH DAKOTA

CITY           SKY/WX    TMP DP  RH WIND       PRES   REMARKS
SIOUX FALLS    PTSUNNY   79  57  46 S18G31    29.79F
HURON          PTSUNNY   82  53  36 S22G35    29.66F
CHAMBERLAIN    PTSUNNY   88  63  43 SE23G31   29.64S
MITCHELL       CLOUDY    85  55  35 SE22G31   29.69F
YANKTON        MOSUNNY   82  60  47 SE20      29.77S
$$

ABBREVIATIONS USED IN REMARKS
   TC - TEMPERATURE IN CELSIUS
  WCI - WIND CHILL INDEX
   HX - HEAT INDEX
  VSB - VISIBILITY




USA.gov is the U.S. government's official web portal to all federal, state and local government web resources and services.